Location: Acequia del Cap
(41.7000°N, 0.6167°E)
Time: 01:36:44
(UTC+00:00)

ADEOS II - Pass Details

Date: 07 August 2020
Orbit: 799 x 802 km, 98.5° (Epoch: 22 September)

Event Time Altitude Azimuth Distance (km) Brightness Sun altitude
Rises 04:00:01 0° 354° (N) 3,319 5.7 -10.4°
Reaches altitude 10° 04:03:36 10° 329° (NNW) 2,383 4.6 -9.8°
Maximum altitude 04:06:00 13° 301° (WNW) 2,152 4.1 -9.5°
Drops below altitude 10° 04:08:24 10° 274° (W) 2,375 4.1 -9.1°
Enters shadow 04:09:18 - 266° (W) 2,560 4.2 -8.9°
